Weather History for Pratt, KS

Change the Weather History Date:

Friday, April 11, 2014

  Actual Average (KP28) Record (KP28)
Temperature  
Mean Temperature 59 °F 54 °F  
Max Temperature 77 °F 67 °F 91 °F (1981)
Min Temperature 41 °F 42 °F 25 °F (1995)
Degree Days  
Heating Degree Days 6 11  
Month to date heating degree days 136  
Since 1 July heating degree days 4233  
Cooling Degree Days 0 1  
Month to date cooling degree days 3  
Year to date cooling degree days 5  
Growing Degree Days 9 (Base 50)    
Moisture  
Dew Point 38 °F    
Average Humidity 44    
Maximum Humidity 70    
Minimum Humidity 28    
Precipitation  
Precipitation 0.00 in 0.07 in 1.11 in (1974)
Month to date precipitation 0.74  
Year to date precipitation 4.75  
Snow  
Snow 0.00 in 0.00 in - ()
Month to date snowfall 0.0  
Since 1 July snowfall 8.5  
Snow Depth -    
Sea Level Pressure  
Sea Level Pressure 29.98 in    
Wind  
Wind Speed 7 mph (SE)    
Max Wind Speed 16 mph    
Max Gust Speed 21 mph    
Visibility 10 miles    
Events      
T = Trace of Precipitation, MM = Missing Value Source: NWS Daily Summary

Daily Weather History Graph

Daily Weather History Graph

Search for Another Location

Airport:

Trip Planner

Search our weather history database for the weather conditions in past years. The results will help you decide how hot, cold, wet, or windy it might be!

Date:

Astronomy

Apr. 11, 2014 Rise Set
Actual Time 7:05 AM CDT 8:07 PM CDT
Civil Twilight 6:38 AM CDT 8:33 PM CDT
Nautical Twilight 6:06 AM CDT 9:05 PM CDT
Astronomical Twilight 5:33 AM CDT 9:39 PM CDT
Moon 4:52 PM CDT (4/11) 4:57 AM CDT (4/11)
Length of Visible Light 13h 55m
Length of Day
13h 01m
Waxing Gibbous, 87% of the Moon is Illuminated
Apr 11
Waxing Gibbous
Apr 15
Full
Apr 22
Last Quarter
Apr 29
New
May 6
First Quarter

Hourly Weather History & Observations

Time (CDT) Temp. Windchill Dew Point Humidity Pressure Visibility Wind Dir Wind Speed Gust Speed Precip Events Conditions
12:15 AM 51.8 °F - 32.0 °F 47% 30.00 in 10.0 mi ENE 6.9 mph - N/A   Clear
12:35 AM 50.0 °F - 32.0 °F 50% 30.01 in 10.0 mi NE 4.6 mph - N/A   Clear
12:55 AM 50.0 °F - 32.0 °F 50% 30.01 in 10.0 mi NE 5.8 mph - N/A   Clear
1:15 AM 50.0 °F - 32.0 °F 50% 30.03 in 10.0 mi NE 6.9 mph - N/A   Clear
1:35 AM 50.0 °F - 32.0 °F 50% 30.03 in 10.0 mi ENE 5.8 mph - N/A   Clear
1:55 AM 50.0 °F - 32.0 °F 50% 30.02 in 10.0 mi East 8.1 mph - N/A   Clear
2:15 AM 50.0 °F - 32.0 °F 50% 30.00 in 10.0 mi East 11.5 mph - N/A   Clear
2:35 AM 50.0 °F - 30.2 °F 47% 29.99 in 10.0 mi East 10.4 mph - N/A   Clear
2:55 AM 50.0 °F - 30.2 °F 47% 30.01 in 10.0 mi ENE 5.8 mph - N/A   Clear
3:15 AM 50.0 °F - 30.2 °F 47% 30.03 in 10.0 mi SE 5.8 mph - N/A   Clear
3:35 AM 50.0 °F - 30.2 °F 47% 30.03 in 10.0 mi NE 5.8 mph - N/A   Clear
3:55 AM 50.0 °F - 30.2 °F 47% 30.04 in 10.0 mi North 10.4 mph - N/A   Clear
4:15 AM 46.4 °F - 32.0 °F 57% 30.03 in 10.0 mi Calm Calm - N/A   Clear
4:35 AM 48.2 °F - 32.0 °F 54% 30.02 in 10.0 mi East 3.5 mph - N/A   Scattered Clouds
4:55 AM 50.0 °F - 30.2 °F 47% 30.00 in 10.0 mi ESE 3.5 mph - N/A   Mostly Cloudy
5:15 AM 50.0 °F - 30.2 °F 47% 29.98 in 10.0 mi SE 8.1 mph - N/A   Scattered Clouds
5:35 AM 50.0 °F - 30.2 °F 47% 30.00 in 10.0 mi ENE 5.8 mph - N/A   Clear
5:55 AM 48.2 °F - 30.2 °F 50% 30.01 in 10.0 mi East 6.9 mph - N/A   Clear
6:15 AM 46.4 °F - 30.2 °F 53% 30.02 in 10.0 mi Calm Calm - N/A   Clear
6:35 AM 46.4 °F - 30.2 °F 53% 30.03 in 10.0 mi Calm Calm - N/A   Clear
6:55 AM 44.6 °F 43.1 °F 30.2 °F 57% 30.02 in 10.0 mi East 3.5 mph - N/A   Clear
7:15 AM 42.8 °F - 30.2 °F 61% 30.03 in 10.0 mi Calm Calm - N/A   Clear
7:35 AM 42.8 °F - 30.2 °F 61% 30.04 in 10.0 mi Calm Calm - N/A   Clear
7:55 AM 41.0 °F 38.0 °F 32.0 °F 70% 30.05 in 5.0 mi NNW 4.6 mph - N/A   Haze
8:15 AM 44.6 °F - 32.0 °F 61% 30.05 in 10.0 mi Calm Calm - N/A   Clear
8:35 AM 50.0 °F - 30.2 °F 47% 30.05 in 10.0 mi Calm Calm - N/A   Clear
9:15 AM 53.6 °F - 30.2 °F 41% 30.06 in 10.0 mi Calm Calm - N/A   Clear
9:35 AM 55.4 °F - 32.0 °F 41% 30.07 in 10.0 mi ESE 4.6 mph - N/A   Clear
9:55 AM 57.2 °F - 32.0 °F 38% 30.06 in 10.0 mi Calm Calm - N/A   Clear
10:15 AM 59.0 °F - 32.0 °F 36% 30.05 in 10.0 mi ESE 6.9 mph - N/A   Clear
10:30 AM 60.8 °F - 33.8 °F 36% 30.06 in 10.0 mi ESE 8.1 mph - N/A   Clear
11:15 AM 62.6 °F - 33.8 °F 34% 30.06 in 10.0 mi ESE 6.9 mph - N/A   Unknown
11:35 AM 64.4 °F - 35.6 °F 34% 30.06 in 10.0 mi SE 6.9 mph - N/A   Clear
11:55 AM 64.4 °F - 35.6 °F 34% 30.05 in 10.0 mi ESE 5.8 mph - N/A   Clear
12:15 PM 68.0 °F - 37.4 °F 33% 30.04 in 10.0 mi SE 6.9 mph - N/A   Clear
12:35 PM 68.0 °F - 37.4 °F 33% 30.04 in 10.0 mi SE 8.1 mph - N/A   Clear
12:55 PM 69.8 °F - 39.2 °F 33% 30.03 in 10.0 mi ESE 4.6 mph - N/A   Clear
1:15 PM 69.8 °F - 39.2 °F 33% 30.02 in 10.0 mi ESE 6.9 mph - N/A   Clear
1:35 PM 71.6 °F - 41.0 °F 33% 30.02 in 10.0 mi SSE 10.4 mph - N/A   Clear
1:55 PM 71.6 °F - 39.2 °F 31% 30.01 in 10.0 mi ESE 8.1 mph - N/A   Clear
2:15 PM 71.6 °F - 41.0 °F 33% 30.00 in 10.0 mi SE 10.4 mph - N/A   Clear
2:55 PM 73.4 °F - 41.0 °F 31% 29.98 in 10.0 mi SE 8.1 mph - N/A   Clear
3:15 PM 75.2 °F - 41.0 °F 29% 29.96 in 10.0 mi SE 13.8 mph - N/A   Clear
3:35 PM 77.0 °F - 41.0 °F 28% 29.95 in 10.0 mi SSE 12.7 mph - N/A   Clear
3:55 PM 77.0 °F - 41.0 °F 28% 29.94 in 10.0 mi SE 11.5 mph 16.1 mph N/A   Clear
4:15 PM 77.0 °F - 41.0 °F 28% 29.93 in 10.0 mi SSE 8.1 mph - N/A   Clear
4:35 PM 77.0 °F - 41.0 °F 28% 29.92 in 10.0 mi SSE 10.4 mph - N/A   Clear
4:55 PM 77.0 °F - 41.0 °F 28% 29.91 in - SSE 11.5 mph - N/A   Unknown
5:15 PM 77.0 °F - 42.8 °F 29% 29.90 in 10.0 mi SSE 13.8 mph - N/A   Clear
5:35 PM 77.0 °F - 42.8 °F 29% 29.90 in 10.0 mi SSE 11.5 mph 18.4 mph N/A   Clear
5:55 PM 77.0 °F - 41.0 °F 28% 29.89 in 10.0 mi SSE 13.8 mph - N/A   Clear
6:15 PM 77.0 °F - 42.8 °F 29% 29.89 in 10.0 mi SSE 16.1 mph 20.7 mph N/A   Clear
6:35 PM 75.2 °F - 42.8 °F 31% 29.89 in 10.0 mi SSE 16.1 mph - N/A   Clear
6:55 PM 73.4 °F - 44.6 °F 36% 29.88 in 10.0 mi SSE 11.5 mph 19.6 mph N/A   Clear
7:15 PM 73.4 °F - 46.4 °F 38% 29.88 in 10.0 mi SSE 10.4 mph - N/A   Clear
7:35 PM 73.4 °F - 46.4 °F 38% 29.88 in 10.0 mi SSE 9.2 mph - N/A   Clear
7:55 PM 71.6 °F - 46.4 °F 41% 29.88 in 10.0 mi SSE 5.8 mph - N/A   Clear
8:15 PM 69.8 °F - 46.4 °F 43% 29.89 in 10.0 mi SSE 5.8 mph - N/A   Clear
8:35 PM 68.0 °F - 46.4 °F 46% 29.89 in 10.0 mi SSE 4.6 mph - N/A   Clear
8:55 PM 66.2 °F - 46.4 °F 49% 29.90 in 10.0 mi SSE 4.6 mph - N/A   Clear
9:15 PM 64.4 °F - 46.4 °F 52% 29.89 in 10.0 mi SSE 5.8 mph - N/A   Clear
9:35 PM 64.4 °F - 46.4 °F 52% 29.90 in 10.0 mi SSE 4.6 mph - N/A   Clear
9:55 PM 64.4 °F - 46.4 °F 52% 29.89 in 10.0 mi SSE 5.8 mph - N/A   Clear
10:15 PM 64.4 °F - 46.4 °F 52% 29.89 in 10.0 mi SSE 6.9 mph - N/A   Clear
10:35 PM 62.6 °F - 48.2 °F 59% 29.88 in 10.0 mi SSE 6.9 mph - N/A   Clear
10:55 PM 62.6 °F - 48.2 °F 59% 29.88 in 10.0 mi SSE 9.2 mph - N/A   Clear
11:15 PM 64.4 °F - 51.8 °F 64% 29.87 in 10.0 mi South 13.8 mph - N/A   Clear
11:35 PM 62.6 °F - 51.8 °F 68% 29.86 in 10.0 mi South 13.8 mph - N/A   Clear
11:55 PM 62.6 °F - 51.8 °F 68% 29.86 in 10.0 mi South 11.5 mph - N/A   Clear